LIC0229 LEBA-LEGE

Flight info

Callsign LIC0229
Flight time N/A
Altitude 36000
Route ALCOL N747 TOSTO M445 SOPET M985 EBROX Z26 LATRO L110 MAMUK
Aircraft B738/M-SDE2E3FGHIRWXY/LB1

Departure

Time 2026-05-06 19:34
Airport Córdoba Airport (LEBA)

Arrival

Time N/A
Airport Girona-Costa Brava Airport (LEGE)
Time Latitude Longitude Altitude Speed Heading
2026-05-06 19:17 37.84521 -4.84412 304 ft 0 kts 205°
2026-05-06 19:29 37.84515 -4.84415 304 ft 3 kts 205°
2026-05-06 19:30 37.84483 -4.84435 304 ft 7 kts 209°
2026-05-06 19:30 37.84474 -4.84489 304 ft 7 kts 294°
2026-05-06 19:30 37.84509 -4.84559 303 ft 12 kts 302°
2026-05-06 19:30 37.84558 -4.84631 304 ft 5 kts 344°
2026-05-06 19:31 37.84583 -4.84622 304 ft 6 kts 27°
2026-05-06 19:31 37.84633 -4.84584 303 ft 11 kts 31°
2026-05-06 19:31 37.84821 -4.84452 300 ft 21 kts 30°
2026-05-06 19:32 37.84955 -4.84360 298 ft 21 kts 28°
2026-05-06 19:32 37.85086 -4.84269 298 ft 17 kts 36°
2026-05-06 19:32 37.85147 -4.84166 301 ft 7 kts 47°
2026-05-06 19:32 37.85186 -4.84159 303 ft 5 kts 330°
2026-05-06 19:33 37.85196 -4.84201 301 ft 4 kts 252°
2026-05-06 19:33 37.85180 -4.84208 303 ft 6 kts 200°
2026-05-06 19:33 37.85018 -4.84318 299 ft 61 kts 209°
2026-05-06 19:33 37.84427 -4.84730 304 ft 130 kts 209°
2026-05-06 19:34 37.83535 -4.85377 670 ft 153 kts 210°
2026-05-06 19:34 37.82599 -4.86052 1438 ft 155 kts 210°
2026-05-06 19:34 37.81658 -4.86707 2220 ft 155 kts 209°
2026-05-06 19:34 37.80629 -4.87404 2604 ft 182 kts 208°
2026-05-06 19:35 37.79456 -4.88220 3018 ft 205 kts 209°
2026-05-06 19:35 37.78162 -4.89113 3438 ft 217 kts 209°
2026-05-06 19:35 37.76825 -4.90037 4127 ft 221 kts 209°
2026-05-06 19:35 37.75467 -4.90939 4936 ft 222 kts 201°
2026-05-06 19:36 37.73931 -4.91108 5636 ft 227 kts 167°
2026-05-06 19:36 37.72543 -4.90168 6380 ft 230 kts 133°
2026-05-06 19:36 37.71752 -4.88429 7161 ft 231 kts 108°
2026-05-06 19:36 37.71351 -4.86462 7962 ft 232 kts 102°
2026-05-06 19:37 37.71020 -4.84454 8773 ft 235 kts 101°
2026-05-06 19:37 37.70690 -4.82427 9631 ft 237 kts 102°
2026-05-06 19:37 37.70349 -4.80381 10396 ft 241 kts 103°
2026-05-06 19:37 37.70114 -4.78999 10867 ft 245 kts 103°
2026-05-06 19:38 37.69626 -4.76190 11895 ft 250 kts 104°
2026-05-06 19:38 37.69245 -4.74031 12711 ft 254 kts 104°
2026-05-06 19:38 37.68857 -4.71838 13543 ft 258 kts 105°
2026-05-06 19:38 37.68512 -4.69597 14278 ft 265 kts 95°
2026-05-06 19:39 37.68881 -4.67297 14965 ft 277 kts 64°
2026-05-06 19:39 37.70187 -4.65384 15260 ft 304 kts 38°
2026-05-06 19:39 37.71987 -4.63778 15486 ft 331 kts 34°
2026-05-06 19:39 37.73980 -4.62099 15705 ft 356 kts 34°
2026-05-06 19:40 37.76077 -4.60321 16234 ft 369 kts 34°
2026-05-06 19:40 37.78217 -4.58466 16997 ft 375 kts 34°
2026-05-06 19:40 37.80368 -4.56568 17843 ft 379 kts 34°
2026-05-06 19:40 37.82544 -4.54632 18562 ft 384 kts 34°
2026-05-06 19:41 37.84705 -4.52598 19203 ft 391 kts 43°
2026-05-06 19:41 37.86375 -4.49870 19854 ft 395 kts 64°
2026-05-06 19:41 37.87519 -4.46707 20571 ft 398 kts 68°
2026-05-06 19:41 37.88580 -4.43504 21187 ft 403 kts 69°
2026-05-06 19:42 37.89665 -4.40151 21846 ft 408 kts 69°
2026-05-06 19:42 37.90734 -4.36850 22478 ft 413 kts 69°
2026-05-06 19:42 37.91842 -4.33463 23087 ft 419 kts 68°
2026-05-06 19:42 37.92973 -4.30036 23631 ft 424 kts 68°
2026-05-06 19:43 37.94123 -4.26572 24162 ft 428 kts 68°
2026-05-06 19:43 37.95288 -4.23076 24681 ft 432 kts 68°
2026-05-06 19:43 37.96464 -4.19551 25203 ft 436 kts 68°
2026-05-06 19:43 37.97651 -4.15990 25687 ft 441 kts 68°
2026-05-06 19:44 37.98850 -4.12391 26156 ft 445 kts 68°
2026-05-06 19:44 38.00059 -4.08757 26647 ft 449 kts 68°
2026-05-06 19:44 38.01277 -4.05087 27123 ft 453 kts 68°
2026-05-06 19:44 38.02504 -4.01388 27556 ft 457 kts 68°
2026-05-06 19:45 38.03742 -3.97648 28004 ft 462 kts 68°
2026-05-06 19:45 38.04989 -3.93877 28448 ft 466 kts 68°
2026-05-06 19:45 38.06230 -3.90118 28888 ft 469 kts 68°
2026-05-06 19:45 38.07497 -3.86278 29298 ft 473 kts 68°
2026-05-06 19:46 38.08770 -3.82411 29692 ft 477 kts 68°
2026-05-06 19:46 38.10055 -3.78505 30061 ft 481 kts 68°
2026-05-06 19:46 38.11346 -3.74573 30422 ft 484 kts 68°
2026-05-06 19:46 38.12642 -3.70624 30821 ft 485 kts 68°
2026-05-06 19:47 38.13940 -3.66663 31200 ft 487 kts 68°
2026-05-06 19:47 38.15203 -3.62666 31546 ft 489 kts 72°
2026-05-06 19:47 38.16128 -3.58505 31957 ft 487 kts 79°
2026-05-06 19:47 38.16842 -3.54311 32462 ft 485 kts 80°
2026-05-06 19:48 38.17509 -3.50112 32961 ft 483 kts 81°
2026-05-06 19:48 38.18164 -3.45923 33391 ft 483 kts 81°
2026-05-06 19:48 38.18827 -3.41740 33812 ft 483 kts 80°
2026-05-06 19:48 38.19502 -3.37566 34201 ft 482 kts 80°
2026-05-06 19:49 38.20188 -3.33393 34551 ft 482 kts 80°
2026-05-06 19:49 38.20879 -3.29223 34869 ft 482 kts 80°
2026-05-06 19:49 38.21573 -3.25050 35199 ft 482 kts 80°
2026-05-06 19:49 38.22259 -3.20925 35536 ft 482 kts 80°
2026-05-06 19:50 38.22951 -3.16753 35849 ft 482 kts 80°
2026-05-06 19:50 38.23644 -3.12561 35865 ft 487 kts 80°
2026-05-06 19:50 38.25032 -3.04118 35877 ft 487 kts 80°
2026-05-06 19:51 38.26402 -2.95752 35887 ft 481 kts 80°
2026-05-06 19:51 38.27763 -2.87394 35897 ft 483 kts 80°
2026-05-06 19:52 38.29123 -2.79000 35906 ft 485 kts 80°
2026-05-06 19:52 38.30252 -2.71999 35905 ft 486 kts 80°
2026-05-06 19:53 38.31608 -2.63563 35911 ft 487 kts 81°
2026-05-06 19:53 38.32959 -2.55113 35921 ft 487 kts 81°
2026-05-06 19:54 38.34306 -2.46643 35919 ft 487 kts 81°
2026-05-06 19:54 38.35647 -2.38180 35925 ft 487 kts 81°
2026-05-06 19:55 38.36287 -2.29651 35953 ft 482 kts 93°
2026-05-06 19:55 38.36268 -2.21108 35949 ft 482 kts 94°
2026-05-06 19:56 38.36276 -2.12562 35956 ft 483 kts 94°
2026-05-06 19:56 38.36337 -2.03992 35954 ft 484 kts 93°
2026-05-06 19:57 38.36923 -1.95427 35960 ft 491 kts 76°
2026-05-06 19:57 38.38096 -1.91339 35961 ft 493 kts 64°
2026-05-06 19:57 38.39859 -1.87598 35958 ft 493 kts 52°
2026-05-06 19:58 38.44116 -1.80770 35962 ft 494 kts 49°
2026-05-06 19:58 38.48448 -1.73948 35962 ft 495 kts 50°
2026-05-06 19:59 38.52702 -1.67076 35962 ft 496 kts 51°
2026-05-06 19:59 38.56951 -1.60117 35962 ft 497 kts 51°
2026-05-06 20:00 38.61197 -1.53143 35964 ft 497 kts 51°
2026-05-06 20:00 38.65442 -1.46165 35962 ft 497 kts 51°
2026-05-06 20:01 38.69689 -1.39172 35967 ft 497 kts 51°
2026-05-06 20:01 38.73927 -1.32178 35964 ft 497 kts 51°
2026-05-06 20:02 38.78159 -1.25177 35966 ft 497 kts 51°
2026-05-06 20:02 38.82382 -1.18173 35967 ft 496 kts 51°
2026-05-06 20:03 38.86603 -1.11158 35971 ft 496 kts 51°
2026-05-06 20:03 38.90820 -1.04133 35966 ft 496 kts 51°